Wind_Speed
27 27 24 21 18 18 19 17 16 15 15 15 12 12 13 12 11 11 11 9 9 9 9 8 8 8 8 8 8 8 8 8 8 8 9 9 9 10 10 11 12 12 13 14
27 26 22 20 18 16 16 15 16 17 17 17 16 15 15 15 14 14 13 11 10 10 10 10 9 9 9 9 9 9 9 9 9 10 10 11 11 11 12 12 13 14 15 15
24 25 24 20 18 17 16 15 17 18 20 19 16 15 15 15 15 15 14 13 12 11 11 11 11 10 10 10 11 11 11 11 11 11 12 12 13 13 14 14 15 16 16 17
23 24 24 18 17 18 16 18 19 21 21 20 19 18 18 18 17 16 15 14 14 13 12 12 12 12 12 12 12 12 12 13 13 13 13 14 15 15 16 16 17 17 18 18
25 25 24 21 18 18 20 21 21 21 20 22 21 20 19 18 18 17 16 15 15 15 14 14 13 13 13 13 14 14 14 14 14 15 15 16 16 17 17 18 19 19 19 20
25 26 25 22 19 20 20 21 21 22 23 23 22 21 20 19 19 18 17 16 17 16 15 15 15 15 15 15 15 16 16 16 16 16 17 18 18 19 19 20 20 21 21 22
26 25 24 20 21 22 20 19 20 22 22 22 22 22 21 21 20 18 17 18 18 17 17 17 17 16 17 17 17 17 17 18 18 18 19 19 20 20 21 21 22 22 23 23
24 26 25 22 19 20 20 20 21 21 20 20 21 21 21 21 21 19 19 19 18 18 18 18 18 18 19 19 19 19 19 20 20 20 21 21 21 22 23 23 24 24 25 25
23 23 23 23 22 19 18 19 20 21 21 21 20 20 21 21 21 20 20 19 19 19 19 20 20 20 20 20 20 21 21 21 22 22 22 22 22 23 24 25 26 26 26 27
22 23 23 24 23 21 19 20 20 20 21 21 21 21 21 21 21 21 21 20 20 20 20 21 21 22 22 22 22 22 22 23 23 23 23 23 24 25 26 26 27 28 28 28
22 22 22 23 23 22 22 23 23 21 21 21 21 21 21 21 21 21 21 21 21 21 21 21 22 23 23 23 22 23 23 24 24 24 25 25 26 27 28 29 29 30 29 29
23 24 24 24 24 24 24 23 22 22 22 22 22 22 22 22 21 21 21 22 22 22 22 23 24 24 24 24 24 24 24 24 25 25 26 27 28 28 29 29 30 31 31 31
23 25 23 22 23 24 23 23 23 23 23 23 23 23 23 23 23 23 23 23 23 24 24 24 25 25 25 26 26 26 26 27 27 27 27 28 29 29 30 30 31 31 32 33
20 22 21 21 23 24 24 25 25 25 25 24 24 24 25 25 25 25 25 25 25 26 26 26 26 26 27 27 27 28 28 28 29 29 30 31 32 32 32 32 32 33 33 34
20 19 19 20 22 23 24 25 25 25 25 24 24 24 25 26 26 26 26 27 27 28 28 28 28 28 28 28 28 29 29 29 29 30 31 31 33 34 34 34 35 35 36 36
20 19 18 19 20 21 22 24 25 25 24 25 25 25 26 26 26 27 28 28 28 28 28 28 28 28 28 28 29 29 30 30 31 32 33 34 34 35 36 36 36 37 38 39
20 19 19 19 20 20 22 22 22 23 24 25 26 26 27 27 28 28 28 28 28 28 28 28 29 28 28 28 29 30 31 32 32 33 34 35 36 37 38 38 39 39 40 40
19 19 20 20 20 19 20 21 22 22 23 24 25 25 26 27 28 28 28 29 29 28 28 29 28 28 29 30 31 32 33 34 34 35 36 36 38 39 40 40 41 41 41 42
19 18 17 17 18 18 18 19 19 21 22 23 24 25 25 26 27 28 28 29 28 29 29 29 29 30 31 32 32 33 34 35 36 38 39 39 40 40 41 42 43 43 43 43
17 17 17 17 17 17 17 18 19 21 22 23 24 25 25 26 26 26 27 27 27 28 28 30 31 31 32 33 33 34 36 37 37 39 39 40 42 43 43 43 44 45 44 44
16 16 15 16 17 18 19 19 19 20 21 22 23 23 24 25 26 26 28 29 29 29 30 31 32 33 33 34 36 37 39 40 41 42 42 43 43 43 44 44 45 45 45 46
16 16 16 16 17 18 19 20 21 21 22 23 24 24 25 26 26 28 29 30 30 30 31 32 33 34 35 37 39 40 41 41 42 43 44 44 44 44 44 45 45 45 46 46
18 18 19 19 20 20 20 21 21 22 23 23 24 25 26 28 28 30 31 31 32 32 33 33 34 36 37 39 40 41 42 43 45 45 45 45 45 44 45 45 45 45 46 46
19 20 21 21 22 22 23 23 24 24 25 25 26 27 28 29 30 31 32 33 34 35 36 37 38 39 40 41 42 43 44 45 46 45 45 45 45 45 45 45 45 45 45 45
20 21 22 22 24 25 25 26 26 27 27 28 29 29 30 31 32 32 33 35 36 37 38 39 40 41 41 42 43 44 45 45 45 45 45 45 45 44 44 44 44 44 44 44
22 22 23 24 25 26 26 27 28 28 29 29 30 31 32 33 34 35 36 37 38 39 40 41 41 41 42 42 43 44 44 45 45 45 46 45 45 43 43 42 42 42 43 43
22 22 23 23 24 25 27 28 29 30 31 32 33 33 34 35 36 36 37 37 38 39 39 40 40 41 42 42 43 43 43 43 43 44 43 43 42 42 41 42 42 42 41 40
Wind_Direction
235 239 241 228 215 216 227 235 239 243 250 260 265 261 265 271 269 265 261 259 264 263 264 264 263 266 270 268 266 267 269 275 281 285 287 290 293 297 302 307 310 312 315 317
235 240 240 232 222 220 221 229 241 250 256 256 258 259 259 266 271 267 263 255 261 262 263 265 267 269 270 271 271 269 270 274 280 284 287 289 292 295 298 302 306 309 311 315
232 236 238 236 229 229 227 227 234 240 250 251 256 262 263 267 270 264 258 257 260 262 265 265 264 267 270 270 272 273 273 274 278 283 286 288 289 292 296 300 303 307 308 311
233 231 235 229 221 222 224 230 234 237 243 251 255 260 264 267 269 265 258 255 255 257 261 264 266 267 269 271 274 274 275 276 278 281 284 286 287 290 293 297 300 303 306 309
235 233 233 225 221 225 224 229 234 238 244 250 256 262 263 262 263 263 259 256 255 257 259 261 263 266 268 271 275 277 277 277 279 281 284 286 288 290 292 295 298 301 303 305
234 235 237 226 221 229 227 233 240 243 245 248 252 255 256 256 258 258 257 258 258 258 260 262 264 266 268 270 273 277 278 277 279 280 282 285 287 289 291 294 296 299 301 303
233 236 241 237 227 226 231 236 239 243 246 246 248 250 252 255 258 260 260 261 260 260 261 262 264 267 268 270 273 276 277 277 277 279 282 284 286 287 290 293 295 297 299 300
233 233 237 238 234 227 229 237 242 245 247 247 249 250 252 256 260 260 261 262 263 264 264 263 265 268 270 273 274 276 278 278 278 280 282 283 286 288 290 293 295 296 297 298
234 234 237 238 240 239 233 239 245 248 250 251 253 252 253 254 256 258 259 260 262 264 263 263 266 269 272 273 275 276 277 279 280 280 281 281 284 288 290 292 294 295 296 297
235 233 235 238 242 246 247 246 247 250 251 252 254 253 253 254 256 256 257 258 260 262 263 265 267 269 272 274 276 276 276 277 278 279 280 282 286 288 290 291 293 294 294 295
238 238 237 238 241 242 247 249 247 249 252 252 253 252 253 257 258 256 255 256 261 263 264 266 268 269 271 273 275 277 277 278 278 279 281 283 285 286 289 291 292 293 293 295
238 238 241 243 243 245 246 248 250 251 251 252 253 252 254 257 259 259 258 258 261 264 266 267 269 270 271 272 275 277 278 277 278 279 280 281 283 285 287 290 292 294 294 295
242 241 245 245 245 243 244 247 250 250 251 252 252 254 256 259 263 263 262 261 263 265 267 270 271 271 272 273 275 278 279 279 279 279 279 281 283 286 288 290 291 294 295 296
246 244 245 246 248 246 247 249 248 250 251 251 252 253 256 259 262 263 263 264 265 267 268 270 272 273 273 274 276 277 279 279 279 279 281 283 284 286 288 290 292 293 294 295
251 249 249 249 248 248 249 250 250 250 251 252 253 254 256 259 261 262 263 265 267 267 269 271 271 271 272 274 275 276 278 279 280 280 282 284 286 287 289 291 292 293 293 294
250 251 254 252 252 252 252 252 253 254 254 253 254 257 258 260 262 263 264 266 268 270 271 272 272 272 273 274 276 277 278 279 280 282 283 285 287 289 290 291 292 293 294 295
252 254 254 256 256 257 255 253 254 253 254 256 257 258 259 261 262 263 264 266 269 271 271 271 272 272 273 275 278 279 279 281 282 283 285 286 286 288 289 290 291 292 294 295
248 252 256 258 258 257 254 253 254 256 258 259 259 260 262 262 263 264 264 266 267 270 272 273 273 273 276 277 279 280 281 282 282 284 286 288 289 289 289 291 291 292 294 294
249 252 253 255 253 254 257 259 258 257 259 261 262 263 265 265 266 266 266 266 267 270 272 273 273 275 277 278 278 279 281 282 284 285 286 287 288 290 291 293 293 292 294 294
252 253 254 255 257 260 261 264 264 263 262 263 266 266 267 268 270 269 268 269 271 272 273 274 274 275 277 278 280 282 284 286 286 287 287 288 288 290 291 292 293 294 293 293
253 254 257 258 260 261 265 268 269 269 267 266 268 269 270 271 271 273 273 273 273 275 276 277 277 278 280 281 282 283 285 286 288 288 289 289 290 290 291 291 292 293 293 294
256 258 261 263 264 266 270 271 272 273 270 268 268 269 270 273 275 276 278 277 276 276 277 279 280 281 282 283 284 285 286 287 288 289 289 290 290 290 290 291 292 293 294 294
258 262 266 268 270 271 273 274 275 276 276 275 273 272 273 275 278 279 280 281 280 279 280 281 283 283 284 285 286 286 287 288 289 290 290 291 292 291 291 292 293 294 295 295
259 262 265 267 270 272 275 277 279 280 280 281 281 280 279 279 280 280 281 282 283 284 284 285 286 286 286 286 287 287 287 288 289 289 290 291 291 292 292 293 294 295 295 295
263 267 269 272 274 276 278 278 279 281 281 282 283 284 283 283 283 284 284 285 285 286 286 287 287 286 286 287 287 288 288 289 290 290 291 292 292 293 294 295 295 294 293 292
273 274 275 276 275 276 278 281 282 282 284 284 285 286 285 285 286 287 287 287 287 288 288 288 287 287 287 288 288 289 290 290 291 292 292 292 292 292 293 294 294 294 294 294
274 275 276 277 279 280 282 284 285 285 286 286 286 287 287 288 288 288 289 290 290 290 290 290 291 291 292 292 291 291 291 291 292 292 292 292 292 293 293 293 294 295 295 295
Height
5805 5805 5806 5809 5812 5816 5821 5824 5825 5825 5825 5826 5826 5828 5829 5831 5832 5833 5834 5834 5836 5837 5837 5838 5838 5839 5839 5840 5840 5841 5841 5842 5842 5842 5843 5843 5842 5842 5842 5841 5840 5839 5838 5837
5800 5801 5803 5806 5809 5812 5816 5819 5822 5823 5824 5823 5823 5824 5826 5828 5829 5830 5831 5831 5833 5834 5835 5835 5836 5836 5837 5837 5838 5838 5839 5839 5840 5840 5840 5840 5840 5839 5839 5838 5837 5836 5835 5834
5795 5798 5799 5803 5806 5810 5812 5816 5818 5820 5820 5819 5820 5821 5822 5824 5826 5827 5828 5829 5830 5831 5832 5833 5833 5834 5834 5835 5835 5836 5836 5836 5837 5837 5837 5836 5836 5836 5835 5835 5834 5833 5831 5830
5791 5794 5796 5802 5802 5804 5807 5810 5812 5814 5816 5816 5817 5818 5820 5821 5822 5823 5825 5826 5827 5828 5829 5830 5830 5831 5831 5832 5832 5832 5833 5833 5833 5833 5833 5833 5832 5832 5831 5830 5829 5828 5827 5825
5786 5788 5791 5794 5797 5799 5801 5804 5806 5808 5810 5812 5813 5814 5816 5817 5818 5819 5821 5822 5823 5824 5825 5826 5827 5827 5828 5828 5828 5829 5829 5829 5829 5829 5829 5828 5828 5827 5827 5826 5825 5823 5822 5820
5781 5783 5784 5788 5791 5793 5796 5798 5800 5803 5805 5807 5809 5811 5812 5812 5813 5815 5816 5817 5818 5820 5821 5822 5823 5823 5824 5824 5824 5824 5825 5825 5825 5824 5824 5824 5823 5823 5822 5821 5819 5818 5817 5815
5775 5777 5778 5781 5785 5788 5792 5793 5794 5797 5799 5801 5803 5805 5807 5808 5809 5810 5812 5813 5814 5815 5816 5817 5818 5818 5819 5819 5819 5820 5820 5820 5819 5819 5819 5819 5818 5817 5816 5815 5814 5813 5811 5809
5769 5771 5776 5775 5778 5782 5784 5786 5789 5791 5794 5796 5798 5800 5801 5803 5805 5806 5807 5808 5809 5810 5811 5812 5813 5813 5814 5814 5814 5814 5814 5813 5813 5813 5813 5812 5812 5811 5810 5809 5808 5806 5805 5803
5765 5768 5770 5771 5773 5774 5777 5781 5784 5787 5789 5791 5793 5795 5796 5798 5800 5801 5802 5803 5804 5805 5806 5807 5807 5808 5808 5808 5808 5808 5808 5808 5808 5807 5806 5806 5805 5805 5804 5803 5801 5800 5798 5796
5759 5761 5764 5767 5769 5771 5773 5777 5780 5781 5783 5785 5787 5789 5791 5792 5794 5795 5796 5798 5799 5800 5801 5801 5802 5802 5802 5802 5802 5802 5801 5801 5801 5801 5800 5799 5798 5798 5797 5796 5794 5792 5790 5788
5754 5756 5758 5761 5764 5766 5769 5772 5774 5776 5778 5780 5782 5784 5785 5787 5788 5790 5791 5792 5793 5794 5795 5795 5796 5796 5796 5796 5796 5795 5795 5794 5794 5794 5793 5792 5791 5791 5790 5788 5786 5785 5782 5780
5748 5751 5754 5757 5759 5762 5764 5767 5768 5771 5773 5774 5776 5778 5780 5781 5782 5784 5785 5786 5787 5788 5788 5789 5789 5789 5789 5789 5789 5788 5788 5787 5787 5786 5786 5785 5784 5783 5781 5780 5778 5776 5774 5771
5743 5746 5748 5750 5754 5756 5758 5760 5762 5764 5766 5768 5770 5772 5774 5775 5776 5777 5778 5779 5780 5781 5781 5781 5782 5782 5782 5782 5781 5781 5781 5780 5779 5779 5778 5777 5776 5774 5773 5771 5770 5767 5765 5762
5738 5741 5742 5745 5747 5749 5752 5754 5756 5758 5760 5762 5764 5765 5767 5768 5769 5770 5771 5772 5773 5773 5774 5774 5774 5774 5774 5774 5774 5773 5773 5772 5771 5770 5769 5768 5767 5765 5764 5762 5761 5758 5756 5753
5734 5736 5737 5739 5741 5743 5745 5747 5749 5751 5753 5755 5757 5758 5760 5761 5762 5763 5764 5765 5765 5766 5766 5766 5766 5766 5766 5766 5765 5765 5764 5764 5763 5762 5760 5759 5757 5756 5754 5752 5750 5748 5745 5743
5729 5730 5732 5734 5735 5737 5739 5741 5743 5744 5746 5748 5750 5751 5752 5753 5754 5755 5756 5757 5757 5758 5758 5758 5757 5757 5757 5757 5757 5756 5755 5755 5754 5752 5751 5749 5748 5746 5744 5742 5739 5737 5734 5731
5724 5726 5727 5729 5730 5731 5733 5735 5736 5738 5739 5741 5743 5744 5745 5745 5746 5747 5748 5748 5749 5749 5749 5749 5749 5748 5749 5748 5748 5747 5746 5745 5744 5743 5741 5739 5737 5735 5733 5730 5728 5725 5722 5719
5719 5721 5722 5724 5724 5726 5727 5729 5730 5731 5732 5734 5735 5736 5736 5737 5738 5739 5739 5740 5741 5741 5741 5740 5740 5740 5740 5739 5738 5737 5736 5735 5733 5732 5730 5728 5725 5723 5721 5718 5715 5712 5709 5706
5714 5716 5717 5718 5720 5721 5722 5723 5724 5725 5726 5727 5728 5728 5729 5730 5730 5731 5731 5731 5732 5732 5732 5731 5731 5731 5731 5730 5728 5727 5725 5724 5722 5721 5719 5716 5714 5711 5708 5706 5703 5699 5696 5693
5709 5711 5712 5713 5714 5715 5716 5717 5718 5718 5719 5720 5721 5721 5722 5722 5722 5723 5723 5723 5723 5723 5723 5722 5722 5721 5721 5719 5717 5716 5714 5713 5711 5709 5707 5705 5702 5699 5696 5693 5689 5686 5683 5679
5705 5706 5707 5708 5709 5710 5711 5711 5712 5712 5713 5713 5714 5714 5714 5715 5715 5715 5715 5715 5714 5714 5713 5712 5712 5711 5710 5708 5707 5705 5703 5701 5699 5697 5694 5692 5689 5686 5683 5679 5676 5673 5669 5666
5700 5701 5702 5703 5704 5704 5705 5705 5706 5706 5706 5706 5707 5707 5707 5707 5707 5707 5706 5706 5705 5704 5703 5702 5701 5700 5699 5697 5695 5693 5691 5688 5686 5684 5681 5678 5675 5672 5669 5666 5663 5659 5656 5652
5695 5696 5697 5697 5698 5698 5699 5699 5699 5699 5700 5699 5699 5699 5699 5698 5698 5698 5697 5696 5695 5694 5693 5691 5690 5689 5687 5684 5682 5680 5678 5676 5673 5670 5667 5665 5662 5658 5656 5652 5649 5645 5641 5638
5690 5691 5691 5692 5692 5692 5693 5692 5692 5692 5692 5692 5692 5691 5690 5689 5689 5688 5687 5685 5684 5683 5682 5680 5679 5677 5674 5672 5670 5667 5665 5662 5660 5657 5653 5650 5647 5644 5641 5638 5634 5630 5627 5624
5684 5684 5685 5685 5685 5685 5685 5685 5685 5684 5684 5684 5683 5682 5682 5680 5679 5678 5676 5675 5673 5672 5670 5668 5666 5664 5662 5659 5657 5654 5651 5648 5645 5642 5639 5636 5633 5630 5627 5623 5620 5616 5613 5610
5677 5678 5678 5678 5678 5678 5677 5677 5676 5675 5675 5674 5673 5672 5671 5670 5669 5667 5665 5664 5662 5660 5658 5655 5653 5651 5649 5646 5643 5641 5638 5635 5632 5628 5625 5622 5619 5616 5613 5609 5606 5603 5599 5596
5671 5671 5671 5670 5670 5670 5669 5668 5667 5666 5666 5665 5663 5662 5661 5659 5657 5655 5654 5652 5649 5647 5645 5642 5640 5638 5635 5632 5630 5627 5624 5621 5618 5615 5612 5608 5605 5602 5599 5596 5593 5589 5586 5583